Location: Dodgeville, WI 53533, USA
(43.0344°N, 90.0900°W)
Time: 12:19:14
(UTC-05:00)

ISS - Visible Passes

Search period start: 21 May 2026 00:00
Search period end: 31 May 2026 00:00
Orbit: 414 x 424 km, 51.6° (Epoch: 21 May)

Date Brightness Start Highest point End Pass type
(mag) Time Alt. Az. Time Alt. Az. Time Alt. Az.
21 May -2.0 21:02:29 10° NW 21:05:23 26° NNE 21:08:16 10° ENE visible
21 May -3.8 22:39:05 10° WNW 22:42:23 67° SW 22:42:23 67° SW visible
22 May -3.7 21:51:21 10° NW 21:54:41 75° NNE 21:56:22 27° ESE visible
22 May -0.9 23:29:09 10° W 23:29:18 11° W 23:29:18 11° W visible
23 May -3.1 21:03:39 10° NW 21:06:54 48° NNE 21:10:09 10° ESE visible
23 May -2.2 22:40:46 10° W 22:43:20 24° SW 22:43:20 24° SW visible
24 May -3.0 21:52:44 10° WNW 21:55:53 40° SW 21:57:24 24° SSE visible
25 May -3.6 21:04:52 10° WNW 21:08:11 68° SW 21:11:30 10° SE visible
26 May -1.4 21:54:52 10° W 21:56:49 15° SW 21:58:35 11° SSW visible
27 May -2.0 21:06:27 10° W 21:09:12 24° SW 21:11:58 10° SSE visible
